Location: ???????
(55.4362°N, 38.1183°E)
Time: 17:54:56
(UTC+00:00)

OPS 8737 - Pass Details

Date: 27 October 2021
Orbit: 356 x 1703 km, 63.3° (Epoch: 11 October)

Event Time Altitude Azimuth Distance (km) Brightness Sun altitude
Rises 15:22:14 0° 296° (WNW) 2,283 9.1 -12.2°
Reaches altitude 10° 15:24:42 10° 317° (NW) 1,363 7.4 -12.6°
Maximum altitude 15:26:49 18° 5° (N) 971 6.0 -12.9°
Enters shadow 15:27:57 15° 35° (NE) 1,097 6.0 -13.0°
